Regional Weather Roundup
Issued by NWS Upton, NY

Current Version | Previous Version | Graphics & Text | Print | Product List | Glossary Off
Versions: 1 2 3 4 5 6 7 8 9 10 11 12 13 14 15 16 17 18 19 20 21 22 23 24 25 26 27 28 29 30 31 32 33 34 35 36 37 38 39 40 41 42 43 44 45 46 47 48 49 50
375 ASUS41 KOKX 030204 RWROKX REGIONAL WEATHER ROUNDUP NATIONAL WEATHER SERVICE NEW YORK NY 1000 PM EDT MON MAY 02 2016 NOTE: "FAIR" INDICATES FEW OR NO CLOUDS BELOW 12,000 FEET WITH NO SIGNIFICANT WEATHER AND/OR OBSTRUCTIONS TO VISIBILITY. NYZ071-072-176-178-NJZ106-104-030300- NEW YORK CITY METRO AREA CITY SKY/WX TMP DP RH WIND PRES REMARKS CENTRAL PARK CLOUDY 57 51 80 CALM 29.96R LAGUARDIA APRT MOCLDY 58 50 75 W3 29.93R KENNEDY INTL MOCLDY 52 50 93 S5 29.95R NEWARK/LIBERTY CLOUDY 56 52 86 NW3 29.92R BRNX BOT. GARD N/A 54 52 94 S2 29.93R TETERBORO CLOUDY 56 50 80 CALM 29.92R $$ NYZ177-179-078>081-030300- LONG ISLAND NEW YORK CITY SKY/WX TMP DP RH WIND PRES REMARKS FARMINGDALE PTCLDY 51 48 89 S3 29.93S ISLIP MOCLDY 50 48 93 CALM 29.93S SHIRLEY CLOUDY 49 47 93 CALM 29.94F RIVERHEAD NOT AVBL WESTHAMPTON CLOUDY 44 44 100 CALM 29.95F EAST HAMPTON FOG 48 47 97 CALM 29.94S VSB 3/4 MONTAUK POINT N/A 50 48 93 S3 29.96F $$ NYZ052-065-067-030300- HUDSON VALLEY CITY SKY/WX TMP DP RH WIND PRES REMARKS WHITE PLAINS CLOUDY 51 49 92 CALM 29.93R NEWBURGH PTCLDY 54 52 94 NE9 29.93R MONTGOMERY CLOUDY 49 47 93 CALM 29.92R POUGHKEEPSIE CLOUDY 53 49 86 CALM 29.93R ALBANY CLOUDY 51 47 86 CALM 29.95S $$ NJZ001-105-106-008-010-013-015-019>022-104-030300- NEW JERSEY CITY SKY/WX TMP DP RH WIND PRES REMARKS NEWARK/LIBERTY CLOUDY 56 52 86 NW3 29.92R TETERBORO CLOUDY 56 50 80 CALM 29.92R CALDWELL CLOUDY 53 50 89 CALM 29.93R FOG MORRISTOWN MOCLDY 50 50 100 CALM 29.93S SOMERVILLE CLOUDY 51 49 92 CALM 29.91R SUSSEX PTCLDY 53 49 86 CALM 29.94R ANDOVER N/A 55 51 86 CALM 29.92S TRENTON CLOUDY 56 53 90 S5 29.92R MILLVILLE CLOUDY 56 54 93 E9 29.91R ATLANTIC CITY CLOUDY 53 51 93 E7 29.93R WRIGHTSTOWN NOT AVBL TOMS RIVER CLOUDY 54 50 87 E3 29.92F BELMAR CLOUDY 52 51 97 SE6 29.94R $$ PAZ047>061-062-071-030300- EASTERN PENNSYLVANIA CITY SKY/WX TMP DP RH WIND PRES REMARKS PHILADELPHIA CLOUDY 62 54 74 E5 29.91F ALLENTOWN CLOUDY 56 53 90 N3 29.92R SCRANTON CLOUDY 52 46 80 N6 29.95R $$ CTZ002-004>006-009-010-012-RIZ004-006-007-MAZ004-011-015-030300- SOUTHERN NEW ENGLAND IN CT CITY SKY/WX TMP DP RH WIND PRES REMARKS BRADLEY INTL CLOUDY 49 47 93 N7 29.94R FOG HARTFORD MOCLDY 52 49 89 NE3 29.95R DANBURY CLOUDY 49 47 93 CALM 29.95R WTRBRY/OXFORD N/A 50 46 87 N6 29.95S BRIDGEPORT CLOUDY 52 49 89 N3 29.93F MERIDEN CLOUDY 50 47 89 CALM 29.94R NEW HAVEN CLOUDY 48 46 93 CALM 29.94S FOG CHESTER MOCLDY 50 50 100 CALM 29.94S FOG GROTON PTCLDY 50 50 100 W3 29.94S WILLIMANTIC PTCLDY 52 48 86 NW3 29.95R IN RI CITY SKY/WX TMP DP RH WIND PRES REMARKS PROVIDENCE MOCLDY 54 48 80 NW5 29.94S BLOCK ISLAND CLOUDY 49 48 97 SW6 29.94F WESTERLY CLOUDY 50 46 86 S3 29.94F FOG IN MA CITY SKY/WX TMP DP RH WIND PRES REMARKS BOSTON CLOUDY 47 44 90 N8 29.96R FOG WORCESTER CLOUDY 47 45 93 VRB3 29.95R WESTFIELD MOCLDY 48 46 93 CALM 29.95R PROVINCETOWN CLOUDY 45 44 97 N8 29.94R NANTUCKET CLOUDY 54 50 86 NW8 29.91S $$ ANZ330-335-338-340-345-350-353-355-030300- COASTAL MARINE OBSERVATIONS STATION/POSITION TIME SKY/WX TEMP WIND PRES VSBY WAVE AIR SEA DIR/SP/G HT/PER (UTC) (F) (DEG/KT/KT) (MB) (MI) (FT/S) NY HARB ENTRANCE 0050 51 52 130/ 4/ 4 1013.6 3/10 20S FIRE ISLAND 0050 48 50 CALM / 2 1013.9 4/10 GREAT SOUTH BAY 0100 51 56 240/ 4/ 6 N/A 23 SSW MONTAUK P 0150 47 48 280/ 4/ 6 1013.6 4/ 6 15 E BARNEGAT LI 0122 52 N/A 4/10 HUDSON CANYON 0050 50 50 1014.1 4/10 KINGS POINT 0100 56 54 1012.7 EXECUTION ROCKS NOT AVBL CENTRAL LI SOUND 0100 50 210/ 4/ 6 N/A 0 EASTERN LI SOUND 0100 49 48 240/ 8/ 8 N/A ROBBINS REEF 0100 54 1012.3 $$ >>>>>>>>>>>>>>>>>>>>>>>>>>>> KEY <<<<<<<<<<<<<<<<<<<<<<<<<<< > < > SKY/WX - SKY CONDITION/PRESENT WEATHER < > TMP - TEMPERATURE IN FAHRENHEIT < > DP - DEWPOINT IN FAHRENHEIT < > RH - RELATIVE HUMIDITY IN PERCENT < > WIND - DIRECTION AND SPEED IN MPH < > PRES - MEAN SEA LEVEL PRESSURE IN INCHES OF HG < > WCI - WIND CHILL INDEX < > VSB - VISIBILITY IN MILES < > HX - HEAT INDEX < > TC - TEMPERATURE IN CELSIUS < > VRB - VARIABLE WIND DIRECTION < > < >>>>>>>>>>>>>>>>>>>>>>>>>>>> KEY <<<<<<<<<<<<<<<<<<<<<<<<<<<

USA.gov is the U.S. government's official web portal to all federal, state and local government web resources and services.